Location: Marse
(42.1502°N, 110.9866°W)
Time: 04:13:46
(UTC+00:00)

BEESAT - Visible Passes

Search period start: 28 June 2022 00:00
Search period end: 08 July 2022 00:00
Orbit: 698 x 708 km, 98.6° (Epoch: 27 June)

Date Brightness Start Highest point End Pass type
(mag) Time Alt. Az. Time Alt. Az. Time Alt. Az.
28 Jun ? 04:55:51 10° NNW 04:59:37 24° WNW 05:03:22 10° WSW visible
29 Jun ? 04:00:22 10° N 04:05:09 78° WNW 04:09:55 10° SSW visible
30 Jun ? 04:43:47 10° N 04:47:55 30° WNW 04:52:02 10° SW visible
01 Jul ? 03:48:34 10° NNE 03:53:21 80° ESE 03:58:08 10° S visible
01 Jul ? 05:28:23 10° NW 05:30:24 13° WNW 05:32:25 10° W visible
02 Jul ? 04:31:46 10° N 04:36:12 39° WNW 04:40:36 10° SW visible
03 Jul ? 03:36:48 10° NNE 03:41:32 60° ESE 03:46:15 10° S visible
03 Jul ? 05:15:51 10° NNW 05:18:45 16° WNW 05:21:40 10° W visible
04 Jul ? 04:19:49 10° N 04:24:27 51° WNW 04:29:04 10° SW visible
05 Jul ? 05:03:35 10° NNW 05:07:05 21° WNW 05:10:36 10° WSW visible
06 Jul ? 04:07:56 10° N 04:12:41 67° WNW 04:17:25 10° SSW visible
07 Jul ? 04:51:26 10° N 04:55:24 26° WNW 04:59:21 10° WSW visible
